Regional Weather Roundup
Issued by NWS Grand Forks, ND

Home | Current Version | Previous Version | Text Only | Print | Product List | Glossary Off
Versions: 1 2 3 4 5 6 7 8 9 10 11 12 13 14 15 16 17 18 19 20 21 22 23 24 25 26 27 28 29 30 31 32 33 34 35 36 37 38 39 40 41 42 43 44 45 46 47 48 49 50

000
ASUS43 KFGF 201210
RWRFGF
PRAIRIE TO PINES  WEATHER ROUNDUP
NATIONAL WEATHER SERVICE EASTERN NORTH DAKOTA/GRAND FORKS ND
600 AM CST MON NOV 20 2017

 **SATELLITE DATA USED TO AUGMENT SKY COVER AT AUTOMATED STATIONS**
 *****  WEATHER ACROSS EASTERN NORTH DAKOTA  *****

CITY           SKY/WX    TMP DP  RH WIND       PRES   REMARKS
GRAND FORKS    CLOUDY    30  25  81 S14       29.44F WCI  19
6HR MIN TEMP:  17; 6HR MAX TEMP:  30;

GRAND FRKS AFB CLEAR     31  24  77 SW8       29.42F WCI  23
GRAND FRKS NWS   N/A     28 N/A N/A S9          N/A  WCI  20
DEVILS LAKE    FAIR      32  26  78 S7        29.40F
6HR MIN TEMP:  21; 6HR MAX TEMP:  32;

FARGO          FAIR      31  23  72 S13       29.51F WCI  21
WAHPETON ARPT  NOT AVBL
$$

 ***** WEATHER ACROSS CENTRAL AND WESTERN NORTH DAKOTA  *****

CITY           SKY/WX    TMP DP  RH WIND       PRES   REMARKS
BISMARCK       FAIR      31  22  69 SE3       29.48F
6HR MIN TEMP:  26; 6HR MAX TEMP:  31;

MINOT          MOCLDY    42  22  44 SW16      29.36F
6HR MIN TEMP:  34; 6HR MAX TEMP:  42;

JAMESTOWN      FAIR      26  21  81 S6        29.45F WCI  19
6HR MIN TEMP:  22; 6HR MAX TEMP:  28;

MINOT AFB      CLOUDY    39  23  53 W12       29.34F
GARRISON         N/A     35  25  66 W10       29.41F
WILLISTON      MOCLDY    33  23  66 SW9       29.39F
6HR MIN TEMP:  25; 6HR MAX TEMP:  33;

DICKINSON      FAIR      38  19  46 W12       29.45S
6HR MIN TEMP:  37; 6HR MAX TEMP:  40;

HETTINGER      FAIR      29  17  61 W9        29.53S WCI  20
6HR MIN TEMP:  26; 6HR MAX TEMP:  36;

$$

 *****  OTHER AIRPORT OBSERVATIONS IN OUR AREA  *****

CITY           SKY/WX    TMP DP  RH WIND       PRES   REMARKS
WALHALLA       FAIR      25  25 100 SE6       29.38F WCI  18
GRAFTON AIRPOR NOT AVBL
VALLEY CITY AR NOT AVBL
CANDO          PTSUNNY   28  28 100 S6        29.39F WCI  22
CAVALIER APRT  FAIR      25  25 100 S10       29.38F WCI  15
GWINNER          N/A     32  23  69 SW16      29.50F WCI  21
ROLLA          FAIR      28  23  80 SW16      29.34F WCI  17
 ***** THE ABOVE OBSERVATIONS ARE NON NWS ARE NOT QUALITY
       CONTROLLED AND MAY MIS-REPORT RAIN FOR SNOW...
$$

  *****  WEATHER ACROSS NORTHERN MINNESOTA  *****

CITY           SKY/WX    TMP DP  RH WIND       PRES   REMARKS
FLAG ISLAND    MOCLDY    21  18  86 SE12      29.47F WCI   9
WARROAD        FAIR      27  21  80 SE7       29.47F WCI  19
ROSEAU         FAIR      28  23  80 SE10      29.45F WCI  19
HALLOCK        FAIR      30  27  86 S16       29.42F WCI  19
THF RVR FALLS  FAIR      28  24  85 S12       29.47F WCI  18
6HR MIN TEMP:  19; 6HR MAX TEMP:  28;

BAUDETTE       FAIR      19  16  88 SE7       29.50F WCI  10
6HR MIN TEMP:  15; 6HR MAX TEMP:  19;

WASKISH        FAIR      27  23  86 SE5       29.53F WCI  21
CROOKSTON      FAIR      30  25  80 S16G24    29.47F WCI  19
STEPHEN NDAWN    N/A     28  23  80 S16         N/A  WCI  17
GREENBUSH NDAW   N/A     28  25  86 S12         N/A  WCI  18
$$
  *****  WEATHER ACROSS CENTRAL AND WEST MINNESOTA  *****

CITY           SKY/WX    TMP DP  RH WIND       PRES   REMARKS
FOSSTON        FAIR      30  25  80 SE8       29.50F WCI  23
BEMIDJI        FAIR      21  20  93 SE3       29.53F
6HR MIN TEMP:  13; 6HR MAX TEMP:  22;

PARK RAPIDS    FAIR      24  21  88 SE7       29.55F WCI  16
6HR MIN TEMP:  21; 6HR MAX TEMP:  25;

ELBOW LAKE     FAIR      29  24  81 E8        29.57F WCI  21
WADENA         FAIR      21  19  93 S5        29.56F WCI  15
DETROIT LAKES  FAIR      30  27  86 S9        29.53F WCI  22
MOORHEAD       FAIR      28  23  80 S14       29.52F WCI  17
FERGUS FALLS   FAIR      30  25  80 SE8       29.58F WCI  23
MORRIS MN      FAIR      27  21  80 SE9       29.57F WCI  17
STAPLES        FAIR      21  21 100 S5        29.58F WCI  15
$$
  *****  WEATHER ELSEWHERE ACROSS MINNESOTA  *****

CITY           SKY/WX    TMP DP  RH WIND       PRES   REMARKS
DULUTH         FAIR      21  19  92 E7        29.64F WCI  12
6HR MIN TEMP:  18; 6HR MAX TEMP:  22;

INTRNTL FALLS  MOCLDY    18  14  84 SE6       29.57F WCI  10
6HR MIN TEMP:  13; 6HR MAX TEMP:  19;

ELY            FAIR      21  19  93 SE5       29.61F WCI  15
CLOQUET        FAIR      19  16  86 E3        29.64F
WHEATON        FAIR      30  23  74 SE9       29.57F WCI  22
BRAINERD       FAIR      23  19  85 S7        29.60F WCI  15
6HR MIN TEMP:  20; 6HR MAX TEMP:  24;

HIBBING        FAIR      14  12  92 CALM      29.62F
6HR MIN TEMP:   7; 6HR MAX TEMP:  14;

ALEXANDRIA     FAIR      28  23  81 SE7       29.59F WCI  21
6HR MIN TEMP:  24; 6HR MAX TEMP:  31;

SAINT CLOUD    FAIR      25  23  92 SE5       29.64F WCI  19
6HR MIN TEMP:  21; 6HR MAX TEMP:  27;

MINNEAPOLIS    FAIR      29  26  89 SE7       29.68F WCI  22
6HR MIN TEMP:  28; 6HR MAX TEMP:  37;

$$

  *****  WEATHER ACROSS SOUTH DAKOTA  *****

CITY           SKY/WX    TMP DP  RH WIND       PRES   REMARKS
SIOUX FALLS    FAIR      32  24  72 S7        29.62F
6HR MIN TEMP:  24; 6HR MAX TEMP:  38;

BROOKINGS      FAIR      28  23  81 SE7       29.60  WCI  21
WATERTOWN      FAIR      28  23  81 S10       29.56F WCI  19
6HR MIN TEMP:  26; 6HR MAX TEMP:  30;

HURON          FAIR      26  22  84 S6        29.58F WCI  19
6HR MIN TEMP:  26; 6HR MAX TEMP:  32;

SISSETON         N/A     30  24  78 S9        29.53  WCI  22
ABERDEEN       FAIR      23  21  92 S6        29.55F WCI  16
6HR MIN TEMP:  19; 6HR MAX TEMP:  24;

MITCHELL       FAIR      28  22  78 S5        29.60F WCI  23
PIERRE         FAIR      31  21  66 SW6       29.55F
6HR MIN TEMP:  24; 6HR MAX TEMP:  36;

MOBRIDGE       FAIR      30  22  72 SE5       29.50F
RAPID CITY     FAIR      35  15  44 CALM      29.58F
6HR MIN TEMP:  26; 6HR MAX TEMP:  37;

$$

  *****  SOME WEATHER IN NEARBY STATES *****

CITY           SKY/WX    TMP DP  RH WIND       PRES   REMARKS
GLASGOW MT     CLOUDY    48  17  29 W13       29.40R
6HR MIN TEMP:  38; 6HR MAX TEMP:  50;

GREAT FALLS MT FAIR      43  14  31 W7        29.53R
6HR MIN TEMP:  43; 6HR MAX TEMP:  50;

CHEYENNE WY    FAIR      47  -3  12 S13G22    29.85F
6HR MIN TEMP:  38; 6HR MAX TEMP:  48;

SCOTTSBLUFF NE FAIR      49   7  18 W22G29    29.75F
6HR MIN TEMP:  38; 6HR MAX TEMP:  49;

OMAHA NE       FAIR      33  25  72 S13       29.79F WCI  24
6HR MIN TEMP:  32; 6HR MAX TEMP:  38;

DES MOINES IA  FAIR      36  27  69 S9        29.83F
6HR MIN TEMP:  36; 6HR MAX TEMP:  41;

DAVENPORT IA   FAIR      34  26  72 S9        29.93F
6HR MIN TEMP:  33; 6HR MAX TEMP:  35;

CHICAGO IL     FAIR      34  23  64 SW14      29.95F WCI  25
6HR MIN TEMP:  30; 6HR MAX TEMP:  34;

EAU CLAIRE WI  FAIR      22  20  92 CALM      29.71F
6HR MIN TEMP:  18; 6HR MAX TEMP:  25;

LA CROSSE WI   FAIR      34  27  75 S9        29.78F
6HR MIN TEMP:  33; 6HR MAX TEMP:  35;

$$

  *****  SOME NATIONAL WEATHER *****

CITY           SKY/WX    TMP DP  RH WIND       PRES   REMARKS
LA GUARDIA NY  FLURRIES  39  27  62 W16G24    29.99R
6HR MIN TEMP:  39; 6HR MAX TEMP:  42; 6HR PCP: TRACE;

RALEIGH NC     FAIR      28  25  88 SW3       30.23R
6HR MIN TEMP:  28; 6HR MAX TEMP:  34;

ATLANTA GA     FAIR      32  28  85 N7        30.20R
6HR MIN TEMP:  32; 6HR MAX TEMP:  37;

NEW ORLEANS LA MOCLDY    50  37  61 E7        30.23R
6HR MIN TEMP:  50; 6HR MAX TEMP:  54;

OKLAHOMA CITY  FAIR      34  27  75 S10       30.09R
6HR MIN TEMP:  34; 6HR MAX TEMP:  40;

ALBUQUERQUE NM FAIR      30   7  37 CALM      30.17S
6HR MIN TEMP:  28; 6HR MAX TEMP:  38;

SALT LAKE CITY FAIR      35  32  88 CALM      30.07S
6HR MIN TEMP:  34; 6HR MAX TEMP:  36;

LOS ANGELES CA FAIR      54  41  61 SE6       29.99S
6HR MIN TEMP:  52; 6HR M



USA.gov is the U.S. government's official web portal to all federal, state and local government web resources and services.